This is the latest recevied weather packets stored in our database for station/object OH7GGX-14. If no packets are shown the sender has not sent any weather packets the latest 1 day(s).
| Time | Temp. | Humidity | Pressure | Rain* | Wind** | Luminosity | Snow |
|---|---|---|---|---|---|---|---|
| 1836274449 | 3.33° C | 99% | 1012.4 hPa | 0 mm | 0 m/s | - | - |
| 1836274299 | 3.89° C | 99% | 1012.3 hPa | 0 mm | 0 m/s | - | - |
| 1778050891 | 8.33° C | 57% | 1008.7 hPa | 0 mm | 1.79 m/s, 213° | - | - |
| 1778050291 | 7.78° C | 60% | 1008.6 hPa | 0 mm | 0.89 m/s, 272° | - | - |
| 1778049691 | 7.78° C | 64% | 1008.6 hPa | 0 mm | 0.45 m/s, 213° | - | - |
| 1778049091 | 7.22° C | 69% | 1008.4 hPa | 0 mm | 0.89 m/s, 210° | - | - |
| 1778048491 | 7.22° C | 71% | 1008.4 hPa | 0 mm | 0.89 m/s, 282° | - | - |
| 1778047891 | 6.67° C | 76% | 1008.4 hPa | 0 mm | 1.34 m/s, 12° | - | - |
| 1778047291 | 6.11° C | 80% | 1008.2 hPa | 0 mm | 0 m/s | - | - |
| 1778046691 | 5.56° C | 84% | 1008.3 hPa | 0 mm | 0.45 m/s, 295° | - | - |
| 1778046091 | 5° C | 89% | 1008.1 hPa | 0 mm | 0.45 m/s, 16° | - | - |
| 1778045491 | 5° C | 93% | 1008.2 hPa | 0 mm | 0.45 m/s, 291° | - | - |
| 1778044891 | 4.44° C | 96% | 1008.2 hPa | 0 mm | 0.45 m/s, 191° | - | - |
| 1778044291 | 3.89° C | 99% | 1008.1 hPa | 0 mm | 1.34 m/s, 19° | - | - |
| 1778043691 | 3.33° C | 99% | 1008.2 hPa | 0 mm | 0 m/s | - | - |
| 1778043091 | 2.78° C | 99% | 1008 hPa | 0 mm | 1.79 m/s, 180° | - | - |
| 1778042491 | 2.78° C | 99% | 1007.9 hPa | 0 mm | 1.34 m/s, 267° | - | - |
| 1778041891 | 2.22° C | 99% | 1007.8 hPa | 0 mm | 0.45 m/s, 234° | - | - |
| 1778041291 | 1.67° C | 99% | 1007.8 hPa | 0 mm | 0.89 m/s, 198° | - | - |
| 1778040691 | 1.11° C | 99% | 1007.7 hPa | 0 mm | 0.89 m/s, 202° | - | - |
| 1778040091 | 0.56° C | 99% | 1007.7 hPa | 0 mm | 0.89 m/s, 191° | - | - |
| 1778039491 | 0° C | 99% | 1007.8 hPa | 0 mm | 0.45 m/s, 223° | - | - |
| 1778038891 | -0.56° C | 99% | 1007.6 hPa | 0 mm | 0.45 m/s, 209° | - | - |
| 1778038291 | -0.56° C | 99% | 1007.5 hPa | 0 mm | 0.45 m/s, 217° | - | - |
| 1778037691 | -1.11° C | 99% | 1007.6 hPa | 0 mm | 0.45 m/s, 223° | - | - |
* Rain latest hour (hover to see other rain measurements)
** Current wind speed in m/s (hover to see current wind gust speed)